Starlink 35275

operational
NORAD ID: 65756 Int'l Des: 2025-216 Owner: SPXS Country: US Constellation: starlink
LEOCIRCULAR

Über Starlink 35275

Beschreibung wird geladen...

Live-Position

3D-Globus wird geladen...

Nächste Überflüge

Höhenverlauf

Altitude vs Time

uPlot chart will show altitude changes over time

Zweizeiliger Elementsatz

1 65756U 25216Y 26072.09735195 .00021936 00000-0 75028-3 0 9997
2 65756 53.1573 317.1788 0000783 172.2551 187.8462 15.30212790 27062
Epoch: 13. März 2026 • Age: 44 hours

Aktueller Status

Höhe 490.8 km
Geschwindigkeit 7.62 km/s
Subsatellitenpunkt -45.92°S, 140.55°E
Startdatum 25. Sept. 2025
Alter 0.4 years
Typ internet

Technische Details

Klassifizierung Payload
Masse 575.00 kg
Trockenmasse 530.00 kg
Gesamtmasse 575.00 kg
Länge 0.30 m
Durchmesser 4.10 m
Spannweite 29.00 m
Form Box + pan
Hersteller SPXS
Bus-Typ Starlink V2MO
Phasenstatus In Orbit
Besitzer/Staat SPXS/US

Große Konstellationen

Loading constellations...